timestamp,wind_dir_avg,wind_spd_avg,wind_spd_max_dir,wind_spd_gust,battery_voltage,lat,long
2022-09-23 00:04:00+00:00,195.0,5.69,200.0,6.6,12.57,47.59359,-54.27349
2022-09-23 00:14:00+00:00,187.0,5.9,188.0,7.05,12.57,47.59359,-54.27349
2022-09-23 00:24:00+00:00,186.0,5.91,186.0,6.43,12.57,47.59359,-54.27349
2022-09-23 00:34:00+00:00,194.0,6.27,195.0,6.87,12.57,47.59359,-54.27349
2022-09-23 00:44:00+00:00,188.0,6.4,191.0,7.21,12.57,47.59359,-54.27349
2022-09-23 00:54:00+00:00,187.0,6.12,183.0,6.71,12.57,47.59359,-54.27349
2022-09-23 01:04:00+00:00,190.0,5.11,191.0,5.86,12.57,47.59359,-54.27349
2022-09-23 01:14:00+00:00,186.0,4.96,188.0,5.42,12.57,47.59359,-54.27349
2022-09-23 01:24:00+00:00,193.0,4.93,197.0,5.79,12.57,47.59359,-54.27349
2022-09-23 01:34:00+00:00,209.0,5.11,206.0,5.67,12.57,47.59359,-54.27349
2022-09-23 01:44:00+00:00,217.0,4.42,221.0,5.02,12.57,47.59359,-54.27349
2022-09-23 01:54:00+00:00,211.0,5.64,213.0,6.98,12.57,47.59359,-54.27349
2022-09-23 02:04:00+00:00,212.0,7.78,216.0,9.77,12.57,47.59359,-54.27349
2022-09-23 02:14:00+00:00,223.0,7.03,212.0,8.29,12.57,47.59359,-54.27349
2022-09-23 02:24:00+00:00,215.0,7.03,218.0,7.88,12.57,47.59359,-54.27349
2022-09-23 02:34:00+00:00,213.0,6.88,205.0,7.74,12.57,47.59359,-54.27349
2022-09-23 02:44:00+00:00,212.0,6.87,213.0,7.52,12.57,47.59359,-54.27349
2022-09-23 02:54:00+00:00,209.0,6.39,208.0,7.3,12.57,47.59359,-54.27349
2022-09-23 03:04:00+00:00,207.0,7.23,211.0,8.22,12.57,47.59359,-54.27349
2022-09-23 03:14:01+00:00,199.0,6.31,197.0,6.92,12.49,47.59359,-54.27349
2022-09-23 03:24:01+00:00,205.0,6.65,211.0,7.79,12.49,47.59359,-54.27349
2022-09-23 03:34:01+00:00,209.0,5.95,214.0,7.2,12.49,47.59359,-54.27349
2022-09-23 03:44:01+00:00,208.0,5.12,202.0,6.19,12.49,47.59359,-54.27349
2022-09-23 03:54:01+00:00,216.0,7.55,227.0,9.51,12.49,47.59359,-54.27349
2022-09-23 04:04:01+00:00,215.0,7.54,226.0,9.5,12.49,47.59359,-54.27349
2022-09-23 04:14:00+00:00,214.0,7.48,224.0,9.1,12.49,47.59359,-54.27349
2022-09-23 04:24:00+00:00,204.0,7.36,203.0,8.09,12.49,47.59359,-54.27349
2022-09-23 04:34:00+00:00,204.0,7.19,203.0,8.4,12.49,47.59359,-54.27349
2022-09-23 04:44:00+00:00,205.0,8.13,211.0,8.85,12.49,47.59359,-54.27349
2022-09-23 04:54:00+00:00,213.0,7.61,221.0,9.22,12.49,47.59359,-54.27349
2022-09-23 05:04:00+00:00,221.0,5.59,220.0,6.26,12.49,47.59359,-54.27349
2022-09-23 05:14:00+00:00,217.0,7.12,224.0,8.47,12.49,47.59359,-54.27349
2022-09-23 05:24:00+00:00,219.0,7.28,219.0,8.36,12.49,47.59359,-54.27349
2022-09-23 05:34:00+00:00,220.0,8.89,226.0,10.42,12.49,47.59359,-54.27349
2022-09-23 05:44:00+00:00,224.0,8.86,224.0,11.14,12.49,47.59359,-54.27349
2022-09-23 05:54:00+00:00,224.0,9.72,230.0,12.17,12.49,47.59359,-54.27349
2022-09-23 06:04:00+00:00,227.0,9.94,233.0,11.9,12.49,47.59359,-54.27349
2022-09-23 06:14:01+00:00,216.0,7.52,233.0,9.24,12.41,47.59359,-54.27349
2022-09-23 06:24:01+00:00,208.0,6.85,209.0,7.43,12.41,47.59359,-54.27349
2022-09-23 06:34:01+00:00,206.0,6.13,207.0,6.79,12.41,47.59359,-54.27349
2022-09-23 06:44:01+00:00,220.0,9.28,222.0,10.62,12.41,47.59359,-54.27349
2022-09-23 06:54:01+00:00,218.0,9.18,222.0,10.74,12.41,47.59359,-54.27349
2022-09-23 07:04:01+00:00,217.0,8.8,223.0,10.12,12.41,47.59359,-54.27349
2022-09-23 07:14:01+00:00,209.0,7.84,216.0,8.69,12.41,47.59359,-54.27349
2022-09-23 07:24:01+00:00,222.0,9.15,229.0,11.84,12.41,47.59359,-54.27349
2022-09-23 07:34:01+00:00,217.0,8.16,225.0,9.98,12.41,47.59359,-54.27349
2022-09-23 07:44:01+00:00,211.0,7.51,211.0,8.3,12.41,47.59359,-54.27349
2022-09-23 07:54:01+00:00,219.0,7.69,225.0,9.36,12.41,47.59359,-54.27349
2022-09-23 08:04:01+00:00,224.0,7.89,230.0,8.97,12.41,47.59359,-54.27349
2022-09-23 08:14:00+00:00,225.0,7.28,232.0,8.74,12.41,47.59359,-54.27349
2022-09-23 08:24:00+00:00,230.0,7.09,231.0,9.13,12.41,47.59359,-54.27349
2022-09-23 08:34:00+00:00,228.0,6.87,232.0,7.86,12.41,47.59359,-54.27349
2022-09-23 08:44:00+00:00,228.0,5.4,232.0,6.21,12.41,47.59359,-54.27349
2022-09-23 08:54:00+00:00,240.0,5.69,223.0,7.7,12.41,47.59359,-54.27349
2022-09-23 09:04:00+00:00,223.0,5.39,228.0,7.29,12.41,47.59359,-54.27349
2022-09-23 09:14:00+00:00,251.0,5.32,252.0,5.86,12.33,47.59359,-54.27349
2022-09-23 09:24:00+00:00,248.0,6.54,251.0,7.0,12.33,47.59359,-54.27349
2022-09-23 09:34:00+00:00,218.0,6.87,225.0,7.94,12.33,47.59359,-54.27349
2022-09-23 09:44:00+00:00,218.0,6.78,216.0,7.55,12.33,47.59359,-54.27349
2022-09-23 09:54:00+00:00,229.0,4.88,233.0,5.83,12.33,47.59359,-54.27349
2022-09-23 10:04:00+00:00,228.0,4.05,214.0,5.03,12.33,47.59359,-54.27349
2022-09-23 10:14:00+00:00,222.0,4.68,216.0,5.54,12.41,47.59359,-54.27349
2022-09-23 10:24:00+00:00,230.0,4.12,235.0,5.3,12.41,47.59359,-54.27349
2022-09-23 10:34:00+00:00,247.0,3.01,231.0,4.13,12.41,47.59359,-54.27349
2022-09-23 10:44:00+00:00,215.0,7.68,216.0,8.79,12.41,47.59359,-54.27349
2022-09-23 10:54:00+00:00,214.0,7.59,214.0,8.27,12.41,47.59359,-54.27349
2022-09-23 11:04:00+00:00,201.0,6.81,204.0,7.94,12.41,47.59359,-54.27349
2022-09-23 11:14:00+00:00,199.0,7.14,199.0,8.01,12.89,47.59359,-54.27349
2022-09-23 11:24:00+00:00,202.0,7.35,203.0,8.03,12.89,47.59359,-54.27349
2022-09-23 11:34:00+00:00,200.0,6.99,199.0,7.93,12.89,47.59359,-54.27349
2022-09-23 11:44:00+00:00,197.0,7.11,199.0,8.33,12.89,47.59359,-54.27349
2022-09-23 11:54:00+00:00,195.0,7.87,196.0,8.69,12.89,47.59359,-54.27349
2022-09-23 12:04:00+00:00,209.0,6.32,210.0,7.48,12.89,47.59359,-54.27349
2022-09-23 12:14:00+00:00,207.0,7.51,208.0,8.08,13.53,47.59359,-54.27349
2022-09-23 12:24:00+00:00,208.0,7.83,207.0,8.5,13.53,47.59359,-54.27349
2022-09-23 12:34:00+00:00,221.0,6.42,224.0,7.46,13.53,47.59359,-54.27349
2022-09-23 12:44:00+00:00,240.0,5.62,239.0,6.74,13.53,47.59359,-54.27349
2022-09-23 12:54:00+00:00,236.0,3.93,230.0,4.83,13.53,47.59359,-54.27349
2022-09-23 13:04:00+00:00,237.0,3.46,227.0,4.89,13.53,47.59359,-54.27349
2022-09-23 13:14:00+00:00,228.0,4.47,221.0,5.25,13.13,47.59359,-54.27349
2022-09-23 13:24:00+00:00,233.0,3.61,233.0,4.63,13.13,47.59359,-54.27349
2022-09-23 13:34:00+00:00,236.0,5.43,235.0,6.66,13.13,47.59359,-54.27349
2022-09-23 13:44:00+00:00,231.0,4.0,233.0,5.13,13.13,47.59359,-54.27349
2022-09-23 13:54:00+00:00,237.0,3.66,232.0,5.13,13.13,47.59359,-54.27349
2022-09-23 14:04:00+00:00,261.0,3.15,247.0,4.4,13.13,47.59359,-54.27349
2022-09-23 14:14:00+00:00,190.0,4.67,191.0,5.59,13.68,47.59359,-54.27349
2022-09-23 14:24:00+00:00,186.0,7.35,191.0,8.16,13.68,47.59359,-54.27349
2022-09-23 14:34:00+00:00,199.0,4.71,198.0,5.87,13.68,47.59359,-54.27349
2022-09-23 14:44:00+00:00,195.0,9.71,197.0,11.08,13.68,47.59359,-54.27349
2022-09-23 14:54:00+00:00,199.0,10.89,198.0,12.59,13.68,47.59359,-54.27349
2022-09-23 15:04:00+00:00,200.0,11.01,205.0,12.71,13.68,47.59359,-54.27349
2022-09-23 15:14:00+00:00,200.0,10.75,206.0,12.28,13.92,47.59359,-54.27349
2022-09-23 15:24:00+00:00,196.0,10.75,198.0,12.12,13.92,47.59359,-54.27349
2022-09-23 15:34:00+00:00,199.0,10.66,203.0,11.55,13.92,47.59359,-54.27349
2022-09-23 15:44:00+00:00,203.0,9.82,202.0,11.17,13.92,47.59359,-54.27349
2022-09-23 15:54:00+00:00,198.0,12.08,201.0,14.72,13.92,47.59359,-54.27349
2022-09-23 16:04:00+00:00,197.0,12.5,196.0,14.35,13.92,47.59359,-54.27349
2022-09-23 16:14:01+00:00,197.0,12.06,198.0,13.47,14.32,47.59359,-54.27349
2022-09-23 16:24:01+00:00,205.0,11.43,204.0,13.29,14.32,47.59359,-54.27349
2022-09-23 16:34:01+00:00,204.0,11.22,205.0,13.02,14.32,47.59359,-54.27349
2022-09-23 16:44:01+00:00,200.0,11.08,204.0,12.63,14.32,47.59359,-54.27349
2022-09-23 16:54:01+00:00,200.0,10.0,196.0,11.52,14.32,47.59359,-54.27349
2022-09-23 17:04:01+00:00,201.0,10.42,206.0,12.3,14.32,47.59359,-54.27349
2022-09-23 17:14:00+00:00,202.0,9.43,206.0,11.11,13.76,47.59359,-54.27349
2022-09-23 17:24:00+00:00,204.0,9.61,203.0,10.45,13.76,47.59359,-54.27349
2022-09-23 17:34:00+00:00,201.0,11.64,200.0,13.61,13.76,47.59359,-54.27349
2022-09-23 17:44:00+00:00,201.0,10.1,199.0,11.39,13.76,47.59359,-54.27349
2022-09-23 17:54:00+00:00,202.0,9.46,206.0,10.64,13.76,47.59359,-54.27349
2022-09-23 18:04:00+00:00,203.0,9.57,206.0,11.22,13.76,47.59359,-54.27349
2022-09-23 18:14:00+00:00,200.0,10.37,196.0,11.62,13.76,47.59359,-54.27349
2022-09-23 18:24:00+00:00,204.0,9.39,206.0,10.5,13.76,47.59359,-54.27349
2022-09-23 18:34:00+00:00,182.0,6.04,181.0,6.68,13.76,47.59359,-54.27349
2022-09-23 18:44:00+00:00,194.0,4.09,207.0,5.03,13.76,47.59359,-54.27349
2022-09-23 18:54:00+00:00,179.0,7.95,182.0,9.29,13.76,47.59359,-54.27349
2022-09-23 19:04:00+00:00,177.0,8.72,178.0,10.45,13.76,47.59359,-54.27349
2022-09-23 19:14:01+00:00,176.0,9.94,184.0,11.57,13.84,47.59359,-54.27349
2022-09-23 19:24:01+00:00,172.0,10.21,172.0,12.44,13.84,47.59359,-54.27349
2022-09-23 19:34:01+00:00,175.0,10.23,177.0,11.91,13.84,47.59359,-54.27349
2022-09-23 19:44:01+00:00,173.0,11.26,174.0,13.25,13.84,47.59359,-54.27349
2022-09-23 19:54:01+00:00,171.0,10.81,174.0,12.31,13.84,47.59359,-54.27349
2022-09-23 20:04:01+00:00,170.0,11.6,170.0,12.88,13.84,47.59359,-54.27349
2022-09-23 20:14:00+00:00,174.0,13.17,177.0,14.74,13.44,47.59359,-54.27349
2022-09-23 20:24:00+00:00,174.0,12.34,178.0,14.75,13.44,47.59359,-54.27349
2022-09-23 20:34:00+00:00,172.0,11.83,170.0,13.37,13.44,47.59359,-54.27349
2022-09-23 20:44:00+00:00,175.0,11.96,182.0,13.69,13.44,47.59359,-54.27349
2022-09-23 20:54:00+00:00,181.0,10.97,182.0,13.18,13.44,47.59359,-54.27349
2022-09-23 21:04:00+00:00,235.0,8.12,237.0,10.07,13.44,47.59359,-54.27349
2022-09-23 21:14:00+00:00,197.0,13.18,192.0,14.78,12.89,47.59359,-54.27349
2022-09-23 21:24:00+00:00,211.0,9.6,209.0,10.55,12.89,47.59359,-54.27349
2022-09-23 21:34:00+00:00,194.0,8.62,194.0,9.82,12.89,47.59359,-54.27349
2022-09-23 21:44:00+00:00,194.0,9.22,205.0,10.82,12.89,47.59359,-54.27349
2022-09-23 21:54:00+00:00,203.0,9.08,209.0,10.75,12.89,47.59359,-54.27349
2022-09-23 22:04:00+00:00,197.0,9.0,209.0,11.05,12.89,47.59359,-54.27349
2022-09-23 22:14:01+00:00,176.0,8.65,174.0,9.9,12.57,47.59359,-54.27349
2022-09-23 22:24:01+00:00,173.0,8.59,177.0,9.39,12.57,47.59359,-54.27349
2022-09-23 22:34:01+00:00,176.0,7.33,177.0,7.75,12.57,47.59359,-54.27349
2022-09-23 22:44:01+00:00,169.0,7.92,145.0,10.55,12.57,47.59359,-54.27349
2022-09-23 22:54:01+00:00,174.0,7.57,151.0,9.15,12.57,47.59359,-54.27349
2022-09-23 23:04:01+00:00,172.0,5.5,144.0,7.26,12.57,47.59359,-54.27349
2022-09-23 23:14:01+00:00,174.0,5.78,178.0,7.9,12.57,47.59359,-54.27349
2022-09-23 23:24:01+00:00,161.0,5.91,136.0,7.85,12.57,47.59359,-54.27349
2022-09-23 23:34:01+00:00,167.0,4.2,170.0,4.95,12.57,47.59359,-54.27349
2022-09-23 23:44:01+00:00,149.0,4.33,123.0,7.35,12.57,47.59359,-54.27349
2022-09-23 23:54:01+00:00,174.0,4.47,145.0,5.99,12.57,47.59359,-54.27349
